SL-14 R/B (20262 NORAD) Tracking and Keplerian Element Data

This shows tracking and keplerian element data for the satellite.

Feedback or suggestion? Click here.




ElementValue
Catalog20262
NameSL-14 R/B
Epoch Orbit32666
Epoch Day323.51166139
Epoch Year2018
RAAN82.8245
Inclination82.5939
Eccentricity0.1237386
Argument of Perigee150.2688
Mean Anonmoly217.4985
Mean Motion12.48907694
Decay Rate5.5E-07
L11 20262U 89080C 18323.51166139 .00000055 00000-0 82708-5 0 9996
L22 20262 82.5939 82.8245 1237386 150.2688 217.4985 12.48907694326668

Live tracking and technical data element details for SL-14 R/B (NORAD 20262). SL-14 R/B can be tracked NOW for your location showing map with azimuth and elevation plus other details from your city location.

Track the satellite on the map from your city or location and see movement details for azimuth, elevation, latitude, longitude, range, height, and movement on the map or in text.







IsCatalogInMostPopularTable: catalog: 20262, numindb: 35
Update: records affected: 1



GetName: 20262 SL-14 R/B

Hit Count: updated at: Wed, 21 Nov 2018 06:36:27 GMT